Simultaneous Nadir Overpasses (SNOs) Predictions

Prediction of SNOs between NOAA-20 and AQUA Satellite Orbit:

Table of predicted SNOs for the next 14.0 days since TLE Epoch: 11/9/2024
Index Date (NOAA-20) Time (NOAA-20) Lat,Lon (NOAA-20) SZA (NOAA-20 ) Date (AQUA) Time (AQUA) Lat,Lon (AQUA) SZA (AQUA ) Distance(km) Time Diff (sec)
1 11/09/2024 12:31:32 -81.31, 100.01 76.35 11/09/2024 12:32:41 -81.32, 100.19 76.41 2.92 69
2 11/09/2024 13:22:15 81.32, -91.79 103.55 11/09/2024 13:22:00 81.32, -91.99 103.59 3.36 15
3 11/11/2024 23:43:54 -81.32, -67.61 75.73 11/11/2024 23:44:42 -81.32, -67.66 75.74 0.92 48
4 11/12/2024 00:34:38 81.32, 100.16 104.23 11/12/2024 00:34:01 81.33, 100.12 104.26 0.96 37
5 11/14/2024 10:56:17 -81.32, 124.20 75.06 11/14/2024 10:56:40 -81.31, 124.24 75.08 0.66 23
6 11/14/2024 11:47:01 81.32, -68.06 104.90 11/14/2024 11:45:59 81.32, -68.02 104.93 0.67 62
7 11/16/2024 22:08:39 -81.32, -43.74 74.45 11/16/2024 22:08:34 -81.31, -43.72 74.46 0.74 5
8 11/19/2024 08:30:16 81.32, -19.13 106.14 11/19/2024 08:31:03 81.32, -19.10 106.11 0.59 47
9 11/19/2024 09:20:59 -81.32, 148.54 73.91 11/19/2024 09:20:23 -81.32, 148.46 73.88 1.46 36
10 11/21/2024 19:42:36 81.32, 172.96 106.67 11/21/2024 19:42:49 81.31, 172.83 106.68 2.20 13



Historial Predications of SNOs between NOAA-20 and AQUA
